Date String (YYYY-MM-DD hh:mm:ss) UTC,Instrument flags,Ambient pressure (hPa),Sample flow (lpm),Bypass flow (lpm),Sample temperature (°C),Ambient temperature (°C),ASC tube jacket temperature (°C),LED temperature (°C),Box temperature (°C),Sample RH (%),Mass concentration (μg/m³),Mass concentration (μg/m³)
DateTimeUTC,F1_M11,P_M11,Q1_M11,Q2_M11,T1_M11,T2_M11,T3_M11,T4_M11,T5_M11,U1_M11,X0_M11,X2_M11
2021-08-12 08:00:00,FlowAlarm;OPCInstrumentWarning,0828.0,5.01,0.00,29.4,28.0,00.0,38.6,31.3,15.0,0041.71,0028.12
2021-08-12 08:01:00,FlowAlarm;OPCInstrumentWarning,0828.0,4.99,0.00,29.4,28.1,00.0,38.6,31.3,15.0,0041.85,0028.01
2021-08-12 08:02:00,FlowAlarm;OPCInstrumentWarning,0828.0,5.01,0.00,29.4,28.3,00.0,38.7,31.3,15.1,0041.15,0027.91
2021-08-12 08:03:00,FlowAlarm;OPCInstrumentWarning,0828.0,4.99,0.00,29.5,28.4,00.0,38.7,31.4,14.9,0040.44,0027.79
2021-08-12 08:04:00,FlowAlarm;OPCInstrumentWarning,0828.0,5.01,0.00,29.5,28.5,00.0,38.7,31.5,15.0,0040.73,0027.80
2021-08-12 08:05:00,FlowAlarm;OPCInstrumentWarning,0828.0,5.00,0.00,29.5,28.5,00.0,38.7,31.5,14.9,0040.47,0027.74
2021-08-12 08:06:00,FlowAlarm;OPCInstrumentWarning,0828.0,4.99,0.00,29.6,28.6,00.0,38.7,31.5,14.9,0039.66,0027.68
2021-08-12 08:07:00,FlowAlarm;OPCInstrumentWarning,0827.9,5.00,0.00,29.6,28.7,00.0,38.7,31.5,14.8,0039.33,0027.60
2021-08-12 08:08:00,FlowAlarm;OPCInstrumentWarning,0828.0,5.00,0.00,29.6,28.7,00.0,38.8,31.6,14.7,0038.81,0027.57
2021-08-12 08:09:00,FlowAlarm;OPCInstrumentWarning,0828.0,5.00,0.00,29.7,28.7,00.0,38.8,31.6,14.8,0038.67,0027.55
2021-08-12 08:10:00,FlowAlarm;OPCInstrumentWarning,0827.9,5.00,0.00,29.7,28.8,00.0,38.8,31.7,14.7,0038.21,0027.58
2021-08-12 08:11:00,FlowAlarm;OPCInstrumentWarning,0828.0,5.00,0.00,29.7,28.9,00.0,38.8,31.7,14.7,0039.06,0027.56
2021-08-12 08:12:00,FlowAlarm;OPCInstrumentWarning,0828.0,5.01,0.00,29.8,28.9,00.0,38.8,31.7,14.6,0039.12,0027.59
2021-08-12 08:13:00,FlowAlarm;OPCInstrumentWarning,0828.0,5.00,0.00,29.8,28.9,00.0,38.9,31.7,14.6,0039.19,0027.57
2021-08-12 08:14:00,FlowAlarm;OPCInstrumentWarning,0828.0,5.00,0.00,29.8,27.7,00.0,38.9,31.4,14.5,0040.66,0027.56
2021-08-12 08:15:00,FlowAlarm;OPCInstrumentWarning,0827.9,4.99,0.00,29.6,25.8,00.0,38.8,30.8,14.7,0041.06,0027.45
2021-08-12 08:16:00,FlowAlarm;OPCInstrumentWarning,0828.0,4.99,0.00,29.4,25.5,00.0,38.7,30.7,14.8,0040.98,0027.36
2021-08-12 08:17:00,FlowAlarm;OPCInstrumentWarning,0827.9,5.02,0.00,29.3,25.9,00.0,38.7,30.8,14.9,0040.97,0027.31
2021-08-12 08:18:00,FlowAlarm;OPCInstrumentWarning,0827.9,4.99,0.00,29.2,26.3,00.0,38.6,30.9,15.0,0040.71,0027.24
2021-08-12 08:19:00,FlowAlarm;OPCInstrumentWarning,0828.0,4.99,0.00,29.2,26.8,00.0,38.6,30.9,15.0,0039.87,0027.16
2021-08-12 08:20:00,FlowAlarm;OPCInstrumentWarning,0828.0,5.01,0.00,29.1,27.1,00.0,38.6,31.0,15.0,0039.77,0027.12
2021-08-12 08:21:00,FlowAlarm;OPCInstrumentWarning,0828.0,5.00,0.00,29.2,27.4,00.0,38.6,31.0,15.0,0039.87,0026.97
2021-08-12 08:22:00,FlowAlarm;OPCInstrumentWarning,0828.0,4.99,0.00,29.2,27.6,00.0,38.5,31.1,15.0,0038.56,0026.87
2021-08-12 08:23:00,FlowAlarm;OPCInstrumentWarning,0827.9,5.02,0.00,29.2,27.8,00.0,38.5,31.1,15.0,0038.38,0026.77
2021-08-12 08:24:00,FlowAlarm;OPCInstrumentWarning,0828.0,5.00,0.00,29.2,28.0,00.0,38.5,31.2,14.9,0038.50,0026.68
2021-08-12 08:25:00,FlowAlarm;OPCInstrumentWarning,0827.9,4.99,0.00,29.3,28.1,00.0,38.5,31.2,14.9,0036.85,0026.61
2021-08-12 08:26:00,FlowAlarm;OPCInstrumentWarning,0827.9,5.00,0.00,29.3,28.2,00.0,38.6,31.3,14.9,0036.12,0026.68
2021-08-12 08:27:00,FlowAlarm;OPCInstrumentWarning,0827.9,5.00,0.00,29.3,28.3,00.0,38.6,31.3,14.8,0036.21,0026.72
2021-08-12 08:28:00,FlowAlarm;OPCInstrumentWarning,0828.0,5.01,0.00,29.4,28.4,00.0,38.6,31.4,14.7,0036.78,0026.70
2021-08-12 08:29:00,FlowAlarm;OPCInstrumentWarning,0827.9,4.99,0.00,29.4,28.5,00.0,38.6,31.4,14.7,0037.48,0026.67
2021-08-12 08:30:00,FlowAlarm;OPCInstrumentWarning,0827.9,5.01,0.00,29.5,28.5,00.0,38.6,31.4,14.7,0037.83,0026.60
2021-08-12 08:31:00,FlowAlarm;OPCInstrumentWarning,0828.0,5.00,0.00,29.5,28.6,00.0,38.6,31.5,14.6,0038.23,0026.62
2021-08-12 08:32:00,FlowAlarm;OPCInstrumentWarning,0828.0,5.01,0.00,29.5,28.6,00.0,38.6,31.5,14.6,0039.16,0026.62
2021-08-12 08:33:00,FlowAlarm;OPCInstrumentWarning,0827.9,5.00,0.00,29.6,28.7,00.0,38.7,31.5,14.5,0039.29,0026.58
2021-08-12 08:34:00,FlowAlarm;OPCInstrumentWarning,0828.0,5.00,0.00,29.6,28.7,00.0,38.7,31.6,14.4,0039.04,0026.59
2021-08-12 08:35:00,FlowAlarm;OPCInstrumentWarning,0827.9,4.97,0.00,29.7,28.8,00.0,38.7,31.6,14.5,0038.97,0026.63
2021-08-12 08:36:00,FlowAlarm;OPCInstrumentWarning,0827.9,5.02,0.00,29.7,28.8,00.0,38.7,31.7,14.4,0039.70,0026.61
2021-08-12 08:37:00,FlowAlarm;OPCInstrumentWarning,0828.0,4.99,0.00,29.7,28.9,00.0,38.8,31.7,14.3,0039.54,0026.56
2021-08-12 08:38:00,FlowAlarm;OPCInstrumentWarning,0828.0,5.00,0.00,29.8,28.9,00.0,38.8,31.7,14.3,0039.27,0026.53
2021-08-12 08:39:00,FlowAlarm;OPCInstrumentWarning,0828.0,5.00,0.00,29.8,28.9,00.0,38.8,31.8,14.3,0038.96,0026.54
2021-08-12 08:40:00,FlowAlarm;OPCInstrumentWarning,0828.0,5.00,0.00,29.8,29.0,00.0,38.9,31.8,14.3,0038.21,0026.48
2021-08-12 08:41:00,FlowAlarm;OPCInstrumentWarning,0827.9,5.00,0.00,29.8,28.1,00.0,38.9,31.6,14.2,0038.15,0026.52
2021-08-12 08:42:00,FlowAlarm;OPCInstrumentWarning,0828.0,5.01,0.00,29.7,26.4,00.0,38.8,31.1,14.3,0038.42,0026.51
2021-08-12 08:43:00,FlowAlarm;OPCInstrumentWarning,0827.9,5.00,0.00,29.6,26.3,00.0,38.8,31.0,14.3,0037.69,0026.51
2021-08-12 08:44:00,FlowAlarm;OPCInstrumentWarning,0827.9,5.01,0.00,29.4,26.6,00.0,38.8,31.1,14.4,0038.02,0026.57
2021-08-12 08:45:00,FlowAlarm;OPCInstrumentWarning,0828.0,5.01,0.00,29.4,27.0,00.0,38.7,31.1,14.5,0038.48,0026.50
2021-08-12 08:46:00,FlowAlarm;OPCInstrumentWarning,0827.9,5.00,0.00,29.4,27.4,00.0,38.7,31.2,14.4,0038.38,0026.45
2021-08-12 08:47:00,FlowAlarm;OPCInstrumentWarning,0828.0,5.00,0.00,29.4,27.7,00.0,38.7,31.2,14.4,0038.39,0026.44
2021-08-12 08:48:00,FlowAlarm;OPCInstrumentWarning,0827.9,5.00,0.00,29.4,27.9,00.0,38.7,31.3,14.4,0039.25,0026.46
2021-08-12 08:49:00,FlowAlarm;OPCInstrumentWarning,0828.0,5.00,0.00,29.4,28.1,00.0,38.7,31.3,14.3,0039.04,0026.38
2021-08-12 08:50:00,FlowAlarm;OPCInstrumentWarning,0828.0,4.99,0.00,29.5,28.2,00.0,38.7,31.4,14.3,0038.79,0026.31
2021-08-12 08:51:00,FlowAlarm;OPCInstrumentWarning,0827.9,5.01,0.00,29.5,28.3,00.0,38.7,31.4,14.3,0038.80,0026.32
2021-08-12 08:52:00,FlowAlarm;OPCInstrumentWarning,0828.0,4.99,0.00,29.5,28.5,00.0,38.7,31.5,14.3,0038.78,0026.27
2021-08-12 08:53:00,FlowAlarm;OPCInstrumentWarning,0828.0,5.01,0.00,29.6,28.5,00.0,38.7,31.5,14.2,0038.50,0026.24
2021-08-12 08:54:00,FlowAlarm;OPCInstrumentWarning,0827.9,5.00,0.00,29.6,28.6,00.0,38.7,31.5,14.2,0037.92,0026.19
2021-08-12 08:55:00,FlowAlarm;OPCInstrumentWarning,0828.0,5.00,0.00,29.6,28.7,00.0,38.8,31.6,14.1,0037.27,0026.09
2021-08-12 08:56:00,FlowAlarm;OPCInstrumentWarning,0828.0,4.99,0.00,29.7,28.8,00.0,38.8,31.6,14.1,0036.67,0026.03
2021-08-12 08:57:00,FlowAlarm;OPCInstrumentWarning,0828.0,5.01,0.00,29.7,28.8,00.0,38.8,31.6,14.0,0036.19,0025.99
2021-08-12 08:58:00,FlowAlarm;OPCInstrumentWarning,0828.0,4.99,0.00,29.7,28.8,00.0,38.8,31.7,14.0,0035.57,0025.94
2021-08-12 08:59:00,FlowAlarm;OPCInstrumentWarning,0827.9,5.01,0.00,29.8,28.9,00.0,38.8,31.7,13.9,0034.42,0025.84
